TimeCEST,TemperatureF,Dew PointF,Humidity,Sea Level PressureIn,VisibilityMPH,Wind Direction,Wind SpeedMPH,Gust SpeedMPH,PrecipitationIn,Events,Conditions,WindDirDegrees,DateUTC
12:55 AM,28.4,23.0,80,30.36,6.2,South,11.5,-,N/A,,Partly Cloudy,190,2012-10-06 22:55:00
1:55 AM,28.4,24.8,86,30.33,0.1,South,17.3,-,N/A,Fog,Light Freezing Fog,190,2012-10-06 23:55:00
2:00 AM,28,25,84,,0,South,17.3,,,Fog,Heavy Fog,190,2012-10-07 00:00:00
2:55 AM,26.6,24.8,93,30.33,0.1,South,9.2,-,N/A,Fog-Snow,Light Snow,190,2012-10-07 00:55:00
3:55 AM,26.6,24.8,93,30.30,0.1,SSW,13.8,-,N/A,Fog-Snow,Light Snow,210,2012-10-07 01:55:00
4:55 AM,26.6,26.6,100,30.27,0.1,SSW,13.8,-,N/A,Fog-Snow,Light Snow,200,2012-10-07 02:55:00
5:00 AM,27,26,95,,0,SSW,13.8,,,Snow,Light Snow,200,2012-10-07 03:00:00
5:55 AM,28.4,24.8,86,30.27,0.1,SW,6.9,-,N/A,Fog-Snow,Light Snow,230,2012-10-07 03:55:00
6:55 AM,30.2,24.8,80,30.27,0.1,NW,9.2,-,N/A,Fog-Snow,Light Snow,310,2012-10-07 04:55:00
7:55 AM,30.2,26.6,86,30.24,0.6,WNW,9.2,-,N/A,Fog-Snow,Light Snow,290,2012-10-07 05:55:00
8:00 AM,30,27,85,,1,WNW,9.2,,,Snow,Light Snow,290,2012-10-07 06:00:00
8:55 AM,30.2,26.6,86,30.27,0.6,West,10.4,-,N/A,Fog-Snow,Light Snow,280,2012-10-07 06:55:00
9:55 AM,30.2,23.0,75,30.27,6.2,West,12.7,-,N/A,,Scattered Clouds,280,2012-10-07 07:55:00
10:55 AM,32.0,23.0,69,30.27,6.2,West,12.7,-,N/A,,Scattered Clouds,280,2012-10-07 08:55:00
11:00 AM,32,23,59,,9,West,12.7,,,,Partly Cloudy,280,2012-10-07 09:00:00
11:55 AM,32.0,24.8,75,30.24,6.2,West,15.0,-,N/A,,Scattered Clouds,270,2012-10-07 09:55:00
12:55 PM,33.8,24.8,70,30.27,6.2,West,13.8,-,N/A,,Scattered Clouds,260,2012-10-07 10:55:00
1:55 PM,32.0,24.8,75,30.27,0.7,North,11.5,-,N/A,,Scattered Clouds,350,2012-10-07 11:55:00
2:00 PM,33,26,65,,1,North,11.5,,,,Mist,350,2012-10-07 12:00:00
2:55 PM,30.2,24.8,80,30.30,0.7,North,20.7,-,N/A,,Scattered Clouds,360,2012-10-07 12:55:00
3:55 PM,30.2,26.6,86,30.30,5.0,North,28.8,-,N/A,,Scattered Clouds,10,2012-10-07 13:55:00
4:55 PM,28.4,24.8,86,30.27,6.2,NNE,28.8,-,N/A,,Scattered Clouds,30,2012-10-07 14:55:00
5:00 PM,29,24,75,,12,NNE,28.8,,,,Partly Cloudy,30,2012-10-07 15:00:00
5:55 PM,28.4,23.0,80,30.27,6.2,NNE,32.2,-,N/A,,Scattered Clouds,20,2012-10-07 15:55:00
6:55 PM,28.4,23.0,80,30.27,6.2,NNE,34.5,-,N/A,,Partly Cloudy,30,2012-10-07 16:55:00
7:55 PM,28.4,21.2,74,30.27,6.2,NNE,20.7,-,N/A,,Partly Cloudy,20,2012-10-07 17:55:00
8:55 PM,28.4,21.2,74,30.27,6.2,NNE,21.9,-,N/A,,Partly Cloudy,30,2012-10-07 18:55:00
9:55 PM,28.4,15.8,59,30.30,-9999.0,NNE,17.3,-,N/A,,Clear,30,2012-10-07 19:55:00
10:55 PM,28.4,14.0,55,30.30,-9999.0,NNE,15.0,-,N/A,,Clear,20,2012-10-07 20:55:00
11:00 PM,29,15,41,,6,NNE,15.0,,,,,20,2012-10-07 21:00:00
11:55 PM,30.2,1.4,29,30.33,-9999.0,North,15.0,-,N/A,,Clear,10,2012-10-07 21:55:00